Epoch 2022 Jan. 21.0 TT = JDT 2459600.5
T 2024 Sept. 13.51195 TT Rudenko
q 3.6653695 (2000.0) P Q
z -0.0005357 Peri. 41.66554 -0.03460285 +0.83129942
+/-0.0000243 Node 125.34383 +0.63790299 -0.40892840
e 1.0019634 Incl. 137.14927 +0.76933895 +0.37645562
From 150 observations 2022 Feb. 23-May 18, mean residual 0".4.
Finding Charts
Magnitudes Graph
m1 = 4.5 + 5 log d + 10.0 log r
The orbital elements are published on M.P.E.C. 2022-K19.
The charts are made with StellaNavigator Ver.10 (AstroArts).
The magnitudes graphs are made with Comet for Windows.
Copyright(C) Seiichi Yoshida (comet@aerith.net). All rights reserved.